Year,Month,Day,Hour,Minute,Value (Times are PST for temperature in C)
2020,03,29,00,00,7.30
2020,03,29,00,01,7.30
2020,03,29,00,02,7.30
2020,03,29,00,03,7.30
2020,03,29,00,04,7.30
2020,03,29,00,05,7.30
2020,03,29,00,06,7.30
2020,03,29,00,07,7.30
2020,03,29,00,08,7.30
2020,03,29,00,09,7.30
2020,03,29,00,10,7.20
2020,03,29,00,11,7.10
2020,03,29,00,12,7.10
2020,03,29,00,13,7.10
2020,03,29,00,14,7.00
2020,03,29,00,15,7.00
2020,03,29,00,16,7.00
2020,03,29,00,17,7.00
2020,03,29,00,18,7.00
2020,03,29,00,19,7.00
2020,03,29,00,20,6.90
2020,03,29,00,21,6.90
2020,03,29,00,22,6.90
2020,03,29,00,23,6.90
2020,03,29,00,24,6.90
2020,03,29,00,25,6.80
2020,03,29,00,26,6.80
2020,03,29,00,27,6.80
2020,03,29,00,28,6.90
2020,03,29,00,29,6.90
2020,03,29,00,30,6.90
2020,03,29,00,31,7.00
2020,03,29,00,32,7.00
2020,03,29,00,33,7.00
2020,03,29,00,34,7.00
2020,03,29,00,35,7.00
2020,03,29,00,36,7.00
2020,03,29,00,37,6.90
2020,03,29,00,38,6.90
2020,03,29,00,39,6.80
2020,03,29,00,40,6.80
2020,03,29,00,41,6.70
2020,03,29,00,42,6.70
2020,03,29,00,43,6.70
2020,03,29,00,44,6.60
2020,03,29,00,45,6.60
2020,03,29,00,46,6.60
2020,03,29,00,47,6.50
2020,03,29,00,48,6.50
2020,03,29,00,49,6.40
2020,03,29,00,50,6.40
2020,03,29,00,51,6.40
2020,03,29,00,52,6.40
2020,03,29,00,53,6.30
2020,03,29,00,54,6.30
2020,03,29,00,55,6.30
2020,03,29,00,56,6.30
2020,03,29,00,57,6.30
2020,03,29,00,58,6.30
2020,03,29,00,59,6.30
2020,03,29,01,00,6.30
2020,03,29,01,01,6.30
2020,03,29,01,02,6.20
2020,03,29,01,03,6.20
2020,03,29,01,04,6.20
2020,03,29,01,05,6.20
2020,03,29,01,06,6.20
2020,03,29,01,07,6.20
2020,03,29,01,08,6.20
2020,03,29,01,09,6.20
2020,03,29,01,10,6.20
2020,03,29,01,11,6.10
2020,03,29,01,12,6.10
2020,03,29,01,13,6.00
2020,03,29,01,14,6.00
2020,03,29,01,15,5.90
2020,03,29,01,16,5.90
2020,03,29,01,17,5.80
2020,03,29,01,18,5.80
2020,03,29,01,19,5.80
2020,03,29,01,20,5.80
2020,03,29,01,21,5.70
2020,03,29,01,22,5.70
2020,03,29,01,23,5.70
2020,03,29,01,24,5.70
2020,03,29,01,25,5.70
2020,03,29,01,26,5.70
2020,03,29,01,27,5.70
2020,03,29,01,28,5.70
2020,03,29,01,29,5.70
2020,03,29,01,30,5.60
2020,03,29,01,31,5.60
2020,03,29,01,32,5.60
2020,03,29,01,33,5.60
2020,03,29,01,34,5.60
2020,03,29,01,35,5.60
2020,03,29,01,36,5.60
2020,03,29,01,37,5.60
2020,03,29,01,38,5.60
2020,03,29,01,39,5.60
2020,03,29,01,40,5.60
2020,03,29,01,41,5.60
2020,03,29,01,42,5.60
2020,03,29,01,43,5.60
2020,03,29,01,44,5.60
2020,03,29,01,45,5.60
2020,03,29,01,46,5.60
2020,03,29,01,47,5.60
2020,03,29,01,48,5.60
2020,03,29,01,49,5.60
2020,03,29,01,50,5.60
2020,03,29,01,51,5.60
2020,03,29,01,52,5.60
2020,03,29,01,53,5.60
2020,03,29,01,54,5.60
2020,03,29,01,55,5.60
2020,03,29,01,56,5.50
2020,03,29,01,57,5.50
2020,03,29,01,58,5.40
2020,03,29,01,59,5.40
2020,03,29,02,00,5.40
2020,03,29,02,01,5.40
2020,03,29,02,02,5.40
2020,03,29,02,03,5.30
2020,03,29,02,04,5.30
2020,03,29,02,05,5.40
2020,03,29,02,06,5.40
2020,03,29,02,07,5.40
2020,03,29,02,08,5.30
2020,03,29,02,09,5.30
2020,03,29,02,10,5.30
2020,03,29,02,11,5.20
2020,03,29,02,12,5.20
2020,03,29,02,13,5.20
2020,03,29,02,14,5.20
2020,03,29,02,15,5.20
2020,03,29,02,16,5.20
2020,03,29,02,17,5.10
2020,03,29,02,18,5.10
2020,03,29,02,19,5.10
2020,03,29,02,20,5.10
2020,03,29,02,21,5.10
2020,03,29,02,22,5.00
2020,03,29,02,23,5.00
2020,03,29,02,24,5.00
2020,03,29,02,25,5.00
2020,03,29,02,26,5.00
2020,03,29,02,27,5.00
2020,03,29,02,28,5.00
2020,03,29,02,29,5.00
2020,03,29,02,30,5.00
2020,03,29,02,31,5.00
2020,03,29,02,32,5.00
2020,03,29,02,33,5.00
2020,03,29,02,34,4.90
2020,03,29,02,35,4.90
2020,03,29,02,36,4.90
2020,03,29,02,37,4.90
2020,03,29,02,38,4.90
2020,03,29,02,39,4.90
2020,03,29,02,40,4.90
2020,03,29,02,41,4.90
2020,03,29,02,42,4.90
2020,03,29,02,43,4.90
2020,03,29,02,44,4.90
2020,03,29,02,45,4.90
2020,03,29,02,46,4.90
2020,03,29,02,47,4.90
2020,03,29,02,48,4.90
2020,03,29,02,49,4.90
2020,03,29,02,50,4.90
2020,03,29,02,51,4.90
2020,03,29,02,52,4.90
2020,03,29,02,53,4.90
2020,03,29,02,54,4.90
2020,03,29,02,55,4.90
2020,03,29,02,56,5.00
2020,03,29,02,57,5.00
2020,03,29,02,58,5.00
2020,03,29,02,59,5.00
2020,03,29,03,00,5.00
2020,03,29,03,01,5.00
2020,03,29,03,02,5.10
2020,03,29,03,03,5.10
2020,03,29,03,04,5.10
2020,03,29,03,05,5.00
2020,03,29,03,06,5.00
2020,03,29,03,07,5.00
2020,03,29,03,08,5.00
2020,03,29,03,09,5.00
2020,03,29,03,10,5.00
2020,03,29,03,11,5.00
2020,03,29,03,12,5.00
2020,03,29,03,13,4.90
2020,03,29,03,14,4.90
2020,03,29,03,15,4.90
2020,03,29,03,16,4.90
2020,03,29,03,17,4.90
2020,03,29,03,18,4.90
2020,03,29,03,19,5.00
2020,03,29,03,20,5.00
2020,03,29,03,21,4.90
2020,03,29,03,22,5.00
2020,03,29,03,23,5.00
2020,03,29,03,24,5.10
2020,03,29,03,25,5.10
2020,03,29,03,26,5.10
2020,03,29,03,27,5.00
2020,03,29,03,28,4.90
2020,03,29,03,29,4.80
2020,03,29,03,30,4.80
2020,03,29,03,31,4.80
2020,03,29,03,32,4.70
2020,03,29,03,33,4.70
2020,03,29,03,34,4.60
2020,03,29,03,35,4.60
2020,03,29,03,36,4.60
2020,03,29,03,37,4.60
2020,03,29,03,38,4.60
2020,03,29,03,39,4.60
2020,03,29,03,40,4.60
2020,03,29,03,41,4.60
2020,03,29,03,42,4.60
2020,03,29,03,43,4.60
2020,03,29,03,44,4.60
2020,03,29,03,45,4.60
2020,03,29,03,46,4.60
2020,03,29,03,47,4.60
2020,03,29,03,48,4.60
2020,03,29,03,49,4.60
2020,03,29,03,50,4.60
2020,03,29,03,51,4.60
2020,03,29,03,52,4.60
2020,03,29,03,53,4.60
2020,03,29,03,54,4.60
2020,03,29,03,55,4.70
2020,03,29,03,56,4.70
2020,03,29,03,57,4.70
2020,03,29,03,58,4.70
2020,03,29,03,59,4.70
2020,03,29,04,00,4.70
2020,03,29,04,01,4.80
2020,03,29,04,02,4.80
2020,03,29,04,03,4.80
2020,03,29,04,04,4.80
2020,03,29,04,05,4.80
2020,03,29,04,06,4.80
2020,03,29,04,07,4.80
2020,03,29,04,08,4.80
2020,03,29,04,09,4.80
2020,03,29,04,10,4.80
2020,03,29,04,11,4.80
2020,03,29,04,12,4.80
2020,03,29,04,13,4.80
2020,03,29,04,14,4.80
2020,03,29,04,15,4.80
2020,03,29,04,16,4.80
2020,03,29,04,17,4.80
2020,03,29,04,18,4.80
2020,03,29,04,19,4.80
2020,03,29,04,20,4.80
2020,03,29,04,21,4.90
2020,03,29,04,22,4.90
2020,03,29,04,23,4.90
2020,03,29,04,24,4.90
2020,03,29,04,25,4.90
2020,03,29,04,26,4.80
2020,03,29,04,27,4.80
2020,03,29,04,28,4.80
2020,03,29,04,29,4.80
2020,03,29,04,30,4.80
2020,03,29,04,31,4.80
2020,03,29,04,32,4.80
2020,03,29,04,33,4.80
2020,03,29,04,34,4.80
2020,03,29,04,35,4.80
2020,03,29,04,36,4.90
2020,03,29,04,37,4.90
2020,03,29,04,38,4.90
2020,03,29,04,39,4.90
2020,03,29,04,40,4.90
2020,03,29,04,41,4.90
2020,03,29,04,42,4.90
2020,03,29,04,43,4.90
2020,03,29,04,44,4.90
2020,03,29,04,45,4.90
2020,03,29,04,46,4.90
2020,03,29,04,47,4.90
2020,03,29,04,48,4.90
2020,03,29,04,49,4.90
2020,03,29,04,50,4.90
2020,03,29,04,51,4.90
2020,03,29,04,52,4.90
2020,03,29,04,53,4.90
2020,03,29,04,54,4.90
2020,03,29,04,55,4.90
2020,03,29,04,56,4.90
2020,03,29,04,57,5.00
2020,03,29,04,58,5.00
2020,03,29,04,59,5.00
2020,03,29,05,00,5.00
2020,03,29,05,01,5.00
2020,03,29,05,02,5.00
2020,03,29,05,03,5.00
2020,03,29,05,04,4.90
2020,03,29,05,05,4.90
2020,03,29,05,06,4.90
2020,03,29,05,07,4.90
2020,03,29,05,08,4.90
2020,03,29,05,09,4.90
2020,03,29,05,10,4.90
2020,03,29,05,11,4.90
2020,03,29,05,12,4.90
2020,03,29,05,13,5.00
2020,03,29,05,14,5.00
2020,03,29,05,15,5.00
2020,03,29,05,16,5.00
2020,03,29,05,17,5.00
2020,03,29,05,18,5.00
2020,03,29,05,19,5.00
2020,03,29,05,20,5.00
2020,03,29,05,21,5.00
2020,03,29,05,22,5.00
2020,03,29,05,23,5.10
2020,03,29,05,24,5.10
2020,03,29,05,25,5.10
2020,03,29,05,26,5.10
2020,03,29,05,27,5.10
2020,03,29,05,28,5.10
2020,03,29,05,29,5.10
2020,03,29,05,30,5.10
2020,03,29,05,31,5.10
2020,03,29,05,32,5.10
2020,03,29,05,33,5.10
2020,03,29,05,34,5.20
2020,03,29,05,35,5.20
2020,03,29,05,36,5.20
2020,03,29,05,37,5.20
2020,03,29,05,38,5.20
2020,03,29,05,39,5.20
2020,03,29,05,40,5.20
2020,03,29,05,41,5.20
2020,03,29,05,42,5.20
2020,03,29,05,43,5.20
2020,03,29,05,44,5.20
2020,03,29,05,45,5.20
2020,03,29,05,46,5.10
2020,03,29,05,47,5.10
2020,03,29,05,48,5.10
2020,03,29,05,49,5.10
2020,03,29,05,50,5.00
2020,03,29,05,51,5.00
2020,03,29,05,52,5.00
2020,03,29,05,53,4.90
2020,03,29,05,54,4.90
2020,03,29,05,55,4.90
2020,03,29,05,56,4.90
2020,03,29,05,57,4.90
2020,03,29,05,58,4.90
2020,03,29,05,59,4.90
2020,03,29,06,00,4.90
2020,03,29,06,01,4.90
2020,03,29,06,02,4.90
2020,03,29,06,03,4.90
2020,03,29,06,04,5.00
2020,03,29,06,05,5.10
2020,03,29,06,06,5.10
2020,03,29,06,07,5.20
2020,03,29,06,08,5.20
2020,03,29,06,09,5.30
2020,03,29,06,10,5.30
2020,03,29,06,11,5.30
2020,03,29,06,12,5.30
2020,03,29,06,13,5.30
2020,03,29,06,14,5.30
2020,03,29,06,15,5.30
2020,03,29,06,16,5.30
2020,03,29,06,17,5.30
2020,03,29,06,18,5.30
2020,03,29,06,19,5.30
2020,03,29,06,20,5.30
2020,03,29,06,21,5.30
2020,03,29,06,22,5.30
2020,03,29,06,23,5.40
2020,03,29,06,24,5.40
2020,03,29,06,25,5.50
2020,03,29,06,26,5.50
2020,03,29,06,27,5.60
2020,03,29,06,28,5.60
2020,03,29,06,29,5.60
2020,03,29,06,30,5.60
2020,03,29,06,31,5.70
2020,03,29,06,32,5.60
2020,03,29,06,33,5.60
2020,03,29,06,34,5.50
2020,03,29,06,35,5.50
2020,03,29,06,36,5.50
2020,03,29,06,37,5.40
2020,03,29,06,38,5.40
2020,03,29,06,39,5.40
2020,03,29,06,40,5.40
2020,03,29,06,41,5.40
2020,03,29,06,42,5.40
2020,03,29,06,43,5.40
2020,03,29,06,44,5.40
2020,03,29,06,45,5.40
2020,03,29,06,46,5.40
2020,03,29,06,47,5.40
2020,03,29,06,48,5.40
2020,03,29,06,49,5.40
2020,03,29,06,50,5.40
2020,03,29,06,51,5.40
2020,03,29,06,52,5.40
2020,03,29,06,53,5.40
2020,03,29,06,54,5.40
2020,03,29,06,55,5.40
2020,03,29,06,56,5.50
2020,03,29,06,57,5.50
2020,03,29,06,58,5.60
2020,03,29,06,59,5.50
2020,03,29,07,00,5.50
2020,03,29,07,01,5.50
2020,03,29,07,02,5.50
2020,03,29,07,03,5.50
2020,03,29,07,04,5.50
2020,03,29,07,05,5.50
2020,03,29,07,06,5.50
2020,03,29,07,07,5.50
2020,03,29,07,08,5.60
2020,03,29,07,09,5.60
2020,03,29,07,10,5.60
2020,03,29,07,11,5.60
2020,03,29,07,12,5.60
2020,03,29,07,13,5.60
2020,03,29,07,14,5.70
2020,03,29,07,15,5.70
2020,03,29,07,16,5.70
2020,03,29,07,17,5.70
2020,03,29,07,18,5.70
2020,03,29,07,19,5.70
2020,03,29,07,20,5.70
2020,03,29,07,21,5.80
2020,03,29,07,22,5.80
2020,03,29,07,23,5.90
2020,03,29,07,24,5.90
2020,03,29,07,25,5.90
2020,03,29,07,26,5.90
2020,03,29,07,27,5.90
2020,03,29,07,28,5.80
2020,03,29,07,29,5.80
2020,03,29,07,30,5.90
2020,03,29,07,31,5.90
2020,03,29,07,32,5.90
2020,03,29,07,33,5.80
2020,03,29,07,34,5.80
2020,03,29,07,35,5.80
2020,03,29,07,36,5.80
2020,03,29,07,37,5.90
2020,03,29,07,38,6.00
2020,03,29,07,39,6.10
2020,03,29,07,40,6.20
2020,03,29,07,41,6.30
2020,03,29,07,42,6.50
2020,03,29,07,43,6.60
2020,03,29,07,44,6.70
2020,03,29,07,45,6.80
2020,03,29,07,46,6.90
2020,03,29,07,47,7.00
2020,03,29,07,48,7.10
2020,03,29,07,49,7.20
2020,03,29,07,50,7.30
2020,03,29,07,51,7.40
2020,03,29,07,52,7.50
2020,03,29,07,53,7.50
2020,03,29,07,54,7.60
2020,03,29,07,55,7.60
2020,03,29,07,56,7.60
2020,03,29,07,57,7.60
2020,03,29,07,58,7.60
2020,03,29,07,59,7.60
2020,03,29,08,00,7.60
2020,03,29,08,01,7.60
2020,03,29,08,02,7.60
2020,03,29,08,03,7.60
2020,03,29,08,04,7.60
2020,03,29,08,05,7.60
2020,03,29,08,06,7.60
2020,03,29,08,07,7.60
2020,03,29,08,08,7.60
2020,03,29,08,09,7.70
2020,03,29,08,10,7.70
2020,03,29,08,11,7.70
2020,03,29,08,12,7.80
2020,03,29,08,13,7.80
2020,03,29,08,14,7.90
2020,03,29,08,15,7.90
2020,03,29,08,16,7.90
2020,03,29,08,17,8.00
2020,03,29,08,18,8.00
2020,03,29,08,19,8.00
2020,03,29,08,20,7.90
2020,03,29,08,21,7.90
2020,03,29,08,22,7.90
2020,03,29,08,23,7.80
2020,03,29,08,24,7.80
2020,03,29,08,25,7.80
2020,03,29,08,26,7.90
2020,03,29,08,27,7.90
2020,03,29,08,28,8.00
2020,03,29,08,29,8.10
2020,03,29,08,30,8.10
2020,03,29,08,31,8.20
2020,03,29,08,32,8.30
2020,03,29,08,33,8.40
2020,03,29,08,34,8.40
2020,03,29,08,35,8.40
2020,03,29,08,36,8.40
2020,03,29,08,37,8.40
2020,03,29,08,38,8.40
2020,03,29,08,39,8.40
2020,03,29,08,40,8.50
2020,03,29,08,41,8.50
2020,03,29,08,42,8.50
2020,03,29,08,43,8.60
2020,03,29,08,44,8.70
2020,03,29,08,45,8.70
2020,03,29,08,46,8.80
2020,03,29,08,47,8.90
2020,03,29,08,48,8.90
2020,03,29,08,49,8.90
2020,03,29,08,50,8.90
2020,03,29,08,51,8.90
2020,03,29,08,52,8.90
2020,03,29,08,53,8.90
2020,03,29,08,54,8.90
2020,03,29,08,55,8.80
2020,03,29,08,56,8.80
2020,03,29,08,57,8.70
2020,03,29,08,58,8.70
2020,03,29,08,59,8.70
2020,03,29,09,00,8.70
2020,03,29,09,01,8.70
2020,03,29,09,02,8.80
2020,03,29,09,03,8.80
2020,03,29,09,04,8.80
2020,03,29,09,05,8.90
2020,03,29,09,06,8.90
2020,03,29,09,07,9.00
2020,03,29,09,08,9.00
2020,03,29,09,09,9.10
2020,03,29,09,10,9.10
2020,03,29,09,11,9.20
2020,03,29,09,12,9.20
2020,03,29,09,13,9.30
2020,03,29,09,14,9.40
2020,03,29,09,15,9.40
2020,03,29,09,16,9.50
2020,03,29,09,17,9.50
2020,03,29,09,18,9.60
2020,03,29,09,19,9.70
2020,03,29,09,20,9.70
2020,03,29,09,21,9.80
2020,03,29,09,22,9.90
2020,03,29,09,23,10.00
2020,03,29,09,24,10.00
2020,03,29,09,25,10.10
2020,03,29,09,26,10.10
2020,03,29,09,27,10.20
2020,03,29,09,28,10.20
2020,03,29,09,29,10.20
2020,03,29,09,30,10.20
2020,03,29,09,31,10.20
2020,03,29,09,32,10.20
2020,03,29,09,33,10.20
2020,03,29,09,34,10.20
2020,03,29,09,35,10.20
2020,03,29,09,36,10.20
2020,03,29,09,37,10.20
2020,03,29,09,38,10.20
2020,03,29,09,39,10.30
2020,03,29,09,40,10.30
2020,03,29,09,41,10.30
2020,03,29,09,42,10.30
2020,03,29,09,43,10.40
2020,03,29,09,44,10.40
2020,03,29,09,45,10.40
2020,03,29,09,46,10.50
2020,03,29,09,47,10.50
2020,03,29,09,48,10.50
2020,03,29,09,49,10.60
2020,03,29,09,50,10.70
2020,03,29,09,51,10.80
2020,03,29,09,52,10.80
2020,03,29,09,53,10.90
2020,03,29,09,54,11.00
2020,03,29,09,55,11.10
2020,03,29,09,56,11.20
2020,03,29,09,57,11.20
2020,03,29,09,58,11.20
2020,03,29,09,59,11.30
2020,03,29,10,00,11.40
2020,03,29,10,01,11.40
2020,03,29,10,02,11.30
2020,03,29,10,03,11.30
2020,03,29,10,04,11.20
2020,03,29,10,05,11.20
2020,03,29,10,06,11.20
2020,03,29,10,07,11.20
2020,03,29,10,08,11.20
2020,03,29,10,09,11.30
2020,03,29,10,10,11.30
2020,03,29,10,11,11.40
2020,03,29,10,12,11.40
2020,03,29,10,13,11.50
2020,03,29,10,14,11.50
2020,03,29,10,15,11.60
2020,03,29,10,16,11.60
2020,03,29,10,17,11.70
2020,03,29,10,18,11.80
2020,03,29,10,19,11.80
2020,03,29,10,20,11.80
2020,03,29,10,21,11.70
2020,03,29,10,22,11.70
2020,03,29,10,23,11.60
2020,03,29,10,24,11.50
2020,03,29,10,25,11.50
2020,03,29,10,26,11.40
2020,03,29,10,27,11.40
2020,03,29,10,28,11.30
2020,03,29,10,29,11.30
2020,03,29,10,30,11.30
2020,03,29,10,31,11.30
2020,03,29,10,32,11.40
2020,03,29,10,33,11.40
2020,03,29,10,34,11.50
2020,03,29,10,35,11.60
2020,03,29,10,36,11.70
2020,03,29,10,37,11.80
2020,03,29,10,38,11.80
2020,03,29,10,39,11.80
2020,03,29,10,40,11.80
2020,03,29,10,41,11.70
2020,03,29,10,42,11.70
2020,03,29,10,43,11.70
2020,03,29,10,44,11.70
2020,03,29,10,45,11.80
2020,03,29,10,46,11.90
2020,03,29,10,47,12.00
2020,03,29,10,48,12.00
2020,03,29,10,49,12.10
2020,03,29,10,50,12.10
2020,03,29,10,51,12.00
2020,03,29,10,52,11.90
2020,03,29,10,53,11.90
2020,03,29,10,54,11.90
2020,03,29,10,55,11.90
2020,03,29,10,56,12.00
2020,03,29,10,57,12.10
2020,03,29,10,58,12.10
2020,03,29,10,59,12.20
2020,03,29,11,00,12.20
2020,03,29,11,01,12.10
2020,03,29,11,02,12.10
2020,03,29,11,03,12.20
2020,03,29,11,04,12.20
2020,03,29,11,05,12.30
2020,03,29,11,06,12.30
2020,03,29,11,07,12.30
2020,03,29,11,08,12.30
2020,03,29,11,09,12.20
2020,03,29,11,10,12.20
2020,03,29,11,11,12.20
2020,03,29,11,12,12.20
2020,03,29,11,13,12.20
2020,03,29,11,14,12.10
2020,03,29,11,15,12.10
2020,03,29,11,16,12.10
2020,03,29,11,17,12.00
2020,03,29,11,18,12.00
2020,03,29,11,19,11.90
2020,03,29,11,20,11.90
2020,03,29,11,21,11.90
2020,03,29,11,22,11.90
2020,03,29,11,23,11.90
2020,03,29,11,24,12.00
2020,03,29,11,25,12.10
2020,03,29,11,26,12.20
2020,03,29,11,27,12.20
2020,03,29,11,28,12.20
2020,03,29,11,29,12.30
2020,03,29,11,30,12.30
2020,03,29,11,31,12.30
2020,03,29,11,32,12.40
2020,03,29,11,33,12.40
2020,03,29,11,34,12.40
2020,03,29,11,35,12.40
2020,03,29,11,36,12.40
2020,03,29,11,37,12.40
2020,03,29,11,38,12.30
2020,03,29,11,39,12.20
2020,03,29,11,40,12.20
2020,03,29,11,41,12.20
2020,03,29,11,42,12.30
2020,03,29,11,43,12.20
2020,03,29,11,44,12.10
2020,03,29,11,45,12.00
2020,03,29,11,46,11.90
2020,03,29,11,47,11.90
2020,03,29,11,48,11.90
2020,03,29,11,49,11.90
2020,03,29,11,50,11.90
2020,03,29,11,51,11.90
2020,03,29,11,52,12.00
2020,03,29,11,53,12.00
2020,03,29,11,54,12.00
2020,03,29,11,55,12.00
2020,03,29,11,56,12.00
2020,03,29,11,57,12.00
2020,03,29,11,58,12.00
2020,03,29,11,59,11.90
2020,03,29,12,00,11.90
2020,03,29,12,01,11.80
2020,03,29,12,02,11.80
2020,03,29,12,03,11.80
2020,03,29,12,04,11.90
2020,03,29,12,05,12.00
2020,03,29,12,06,12.10
2020,03,29,12,07,12.10
2020,03,29,12,08,12.20
2020,03,29,12,09,12.20
2020,03,29,12,10,12.20
2020,03,29,12,11,12.30
2020,03,29,12,12,12.30
2020,03,29,12,13,12.30
2020,03,29,12,14,12.30
2020,03,29,12,15,12.30
2020,03,29,12,16,12.30
2020,03,29,12,17,12.30
2020,03,29,12,18,12.30
2020,03,29,12,19,12.20
2020,03,29,12,20,12.20
2020,03,29,12,21,12.10
2020,03,29,12,22,12.20
2020,03,29,12,23,12.20
2020,03,29,12,24,12.20
2020,03,29,12,25,12.30
2020,03,29,12,26,12.40
2020,03,29,12,27,12.50
2020,03,29,12,28,12.60
2020,03,29,12,29,12.70
2020,03,29,12,30,12.80
2020,03,29,12,31,12.90
2020,03,29,12,32,13.00
2020,03,29,12,33,13.10
2020,03,29,12,34,13.20
2020,03,29,12,35,13.20
2020,03,29,12,36,13.30
2020,03,29,12,37,13.40
2020,03,29,12,38,13.40
2020,03,29,12,39,13.50
2020,03,29,12,40,13.50
2020,03,29,12,41,13.40
2020,03,29,12,42,13.40
2020,03,29,12,43,13.40
2020,03,29,12,44,13.30
2020,03,29,12,45,13.30
2020,03,29,12,46,13.20
2020,03,29,12,47,13.00
2020,03,29,12,48,12.90
2020,03,29,12,49,12.80
2020,03,29,12,50,12.80
2020,03,29,12,51,12.60
2020,03,29,12,52,12.30
2020,03,29,12,53,12.00
2020,03,29,12,54,11.80
2020,03,29,12,55,11.60
2020,03,29,12,56,11.40
2020,03,29,12,57,11.20
2020,03,29,12,58,11.00
2020,03,29,12,59,10.90
2020,03,29,13,00,10.80
2020,03,29,13,01,10.80
2020,03,29,13,02,10.70
2020,03,29,13,03,10.60
2020,03,29,13,04,10.60
2020,03,29,13,05,10.50
2020,03,29,13,06,10.50
2020,03,29,13,07,10.50
2020,03,29,13,08,10.40
2020,03,29,13,09,10.40
2020,03,29,13,10,10.40
2020,03,29,13,11,10.30
2020,03,29,13,12,10.30
2020,03,29,13,13,10.30
2020,03,29,13,14,10.30
2020,03,29,13,15,10.20
2020,03,29,13,16,10.20
2020,03,29,13,17,10.20
2020,03,29,13,18,10.20
2020,03,29,13,19,10.20
2020,03,29,13,20,10.20
2020,03,29,13,21,10.20
2020,03,29,13,22,10.20
2020,03,29,13,23,10.20
2020,03,29,13,24,10.10
2020,03,29,13,25,10.10
2020,03,29,13,26,10.10
2020,03,29,13,27,10.10
2020,03,29,13,28,10.10
2020,03,29,13,29,10.10
2020,03,29,13,30,10.10
2020,03,29,13,31,10.10
2020,03,29,13,32,10.10
2020,03,29,13,33,10.10
2020,03,29,13,34,10.10
2020,03,29,13,35,10.20
2020,03,29,13,36,10.20
2020,03,29,13,37,10.20
2020,03,29,13,38,10.20
2020,03,29,13,39,10.20
2020,03,29,13,40,10.20
2020,03,29,13,41,10.20
2020,03,29,13,42,10.20
2020,03,29,13,43,10.20
2020,03,29,13,44,10.20
2020,03,29,13,45,10.20
2020,03,29,13,46,10.20
2020,03,29,13,47,10.30
2020,03,29,13,48,10.30
2020,03,29,13,49,10.30
2020,03,29,13,50,10.30
2020,03,29,13,51,10.30
2020,03,29,13,52,10.30
2020,03,29,13,53,10.30
2020,03,29,13,54,10.30
2020,03,29,13,55,10.40
2020,03,29,13,56,10.40
2020,03,29,13,57,10.40
2020,03,29,13,58,10.40
2020,03,29,13,59,10.40
2020,03,29,14,00,10.40
2020,03,29,14,01,10.40
2020,03,29,14,02,10.40
2020,03,29,14,03,10.40
2020,03,29,14,04,10.40
2020,03,29,14,05,10.40
2020,03,29,14,06,10.40
2020,03,29,14,07,10.40
2020,03,29,14,08,10.40
2020,03,29,14,09,10.30
2020,03,29,14,10,10.30
2020,03,29,14,11,10.30
2020,03,29,14,12,10.30
2020,03,29,14,13,10.30
2020,03,29,14,14,10.30
2020,03,29,14,15,10.30
2020,03,29,14,16,10.20
2020,03,29,14,17,10.20
2020,03,29,14,18,10.20
2020,03,29,14,19,10.10
2020,03,29,14,20,10.10
2020,03,29,14,21,10.10
2020,03,29,14,22,10.10
2020,03,29,14,23,10.10
2020,03,29,14,24,10.10
2020,03,29,14,25,10.10
2020,03,29,14,26,10.10
2020,03,29,14,27,10.10
2020,03,29,14,28,10.10
2020,03,29,14,29,10.10
2020,03,29,14,30,10.10
2020,03,29,14,31,10.10
2020,03,29,14,32,10.10
2020,03,29,14,33,10.10
2020,03,29,14,34,10.10
2020,03,29,14,35,10.10
2020,03,29,14,36,10.10
2020,03,29,14,37,10.20
2020,03,29,14,38,10.20
2020,03,29,14,39,10.20
2020,03,29,14,40,10.20
2020,03,29,14,41,10.20
2020,03,29,14,42,10.20
2020,03,29,14,43,10.20
2020,03,29,14,44,10.20
2020,03,29,14,45,10.20
2020,03,29,14,46,10.30
2020,03,29,14,47,10.30
2020,03,29,14,48,10.30
2020,03,29,14,49,10.30
2020,03,29,14,50,10.30
2020,03,29,14,51,10.30
2020,03,29,14,52,10.30
2020,03,29,14,53,10.30
2020,03,29,14,54,10.30
2020,03,29,14,55,10.30
2020,03,29,14,56,10.30
2020,03,29,14,57,10.30
2020,03,29,14,58,10.40
2020,03,29,14,59,10.40
2020,03,29,15,00,10.50
2020,03,29,15,01,10.50
2020,03,29,15,02,10.50
2020,03,29,15,03,10.50
2020,03,29,15,04,10.50
2020,03,29,15,05,10.50
2020,03,29,15,06,10.40
2020,03,29,15,07,10.40
2020,03,29,15,08,10.40
2020,03,29,15,09,10.30
2020,03,29,15,10,10.30
2020,03,29,15,11,10.30
2020,03,29,15,12,10.30
2020,03,29,15,13,10.30
2020,03,29,15,14,10.30
2020,03,29,15,15,10.40
2020,03,29,15,16,10.40
2020,03,29,15,17,10.40
2020,03,29,15,18,10.50
2020,03,29,15,19,10.50
2020,03,29,15,20,10.50
2020,03,29,15,21,10.50
2020,03,29,15,22,10.60
2020,03,29,15,23,10.50
2020,03,29,15,24,10.50
2020,03,29,15,25,10.40
2020,03,29,15,26,10.40
2020,03,29,15,27,10.40
2020,03,29,15,28,10.30
2020,03,29,15,29,10.20
2020,03,29,15,30,10.10
2020,03,29,15,31,10.10
2020,03,29,15,32,10.00
2020,03,29,15,33,10.00
2020,03,29,15,34,10.00
2020,03,29,15,35,10.00
2020,03,29,15,36,10.00
2020,03,29,15,37,10.00
2020,03,29,15,38,10.10
2020,03,29,15,39,10.10
2020,03,29,15,40,10.10
2020,03,29,15,41,10.20
2020,03,29,15,42,10.20
2020,03,29,15,43,10.20
2020,03,29,15,44,10.20
2020,03,29,15,45,10.20
2020,03,29,15,46,10.20
2020,03,29,15,47,10.20
2020,03,29,15,48,10.30
2020,03,29,15,49,10.30
2020,03,29,15,50,10.30
2020,03,29,15,51,10.30
2020,03,29,15,52,10.40
2020,03,29,15,53,10.40
2020,03,29,15,54,10.50
2020,03,29,15,55,10.50
2020,03,29,15,56,10.50
2020,03,29,15,57,10.60
2020,03,29,15,58,10.60
2020,03,29,15,59,10.70
2020,03,29,16,00,10.70
2020,03,29,16,01,10.60
2020,03,29,16,02,10.60
2020,03,29,16,03,10.60
2020,03,29,16,04,10.60
2020,03,29,16,05,10.50
2020,03,29,16,06,10.50
2020,03,29,16,07,10.60
2020,03,29,16,08,10.50
2020,03,29,16,09,10.50
2020,03,29,16,10,10.40
2020,03,29,16,11,10.40
2020,03,29,16,12,10.50
2020,03,29,16,13,10.40
2020,03,29,16,14,10.40
2020,03,29,16,15,10.40
2020,03,29,16,16,10.50
2020,03,29,16,17,10.50
2020,03,29,16,18,10.60
2020,03,29,16,19,10.70
2020,03,29,16,20,10.70
2020,03,29,16,21,10.70
2020,03,29,16,22,10.60
2020,03,29,16,23,10.70
2020,03,29,16,24,10.70
2020,03,29,16,25,10.70
2020,03,29,16,26,10.70
2020,03,29,16,27,10.80
2020,03,29,16,28,10.80
2020,03,29,16,29,10.80
2020,03,29,16,30,10.80
2020,03,29,16,31,10.80
2020,03,29,16,32,10.80
2020,03,29,16,33,10.80
2020,03,29,16,34,10.90
2020,03,29,16,35,10.90
2020,03,29,16,36,10.80
2020,03,29,16,37,10.80
2020,03,29,16,38,10.80
2020,03,29,16,39,10.80
2020,03,29,16,40,10.80
2020,03,29,16,41,10.80
2020,03,29,16,42,10.80
2020,03,29,16,43,10.70
2020,03,29,16,44,10.70
2020,03,29,16,45,10.70
2020,03,29,16,46,10.70
2020,03,29,16,47,10.80
2020,03,29,16,48,10.80
2020,03,29,16,49,10.80
2020,03,29,16,50,10.80
2020,03,29,16,51,10.80
2020,03,29,16,52,10.80
2020,03,29,16,53,10.80
2020,03,29,16,54,10.80
2020,03,29,16,55,10.80
2020,03,29,16,56,10.70
2020,03,29,16,57,10.70
2020,03,29,16,58,10.60
2020,03,29,16,59,10.60
2020,03,29,17,00,10.60
2020,03,29,17,01,10.60
2020,03,29,17,02,10.70
2020,03,29,17,03,10.70
2020,03,29,17,04,10.80
2020,03,29,17,05,10.70
2020,03,29,17,06,10.70
2020,03,29,17,07,10.70
2020,03,29,17,08,10.60
2020,03,29,17,09,10.60
2020,03,29,17,10,10.50
2020,03,29,17,11,10.50
2020,03,29,17,12,10.40
2020,03,29,17,13,10.40
2020,03,29,17,14,10.40
2020,03,29,17,15,10.30
2020,03,29,17,16,10.20
2020,03,29,17,17,10.20
2020,03,29,17,18,10.20
2020,03,29,17,19,10.10
2020,03,29,17,20,10.10
2020,03,29,17,21,10.10
2020,03,29,17,22,10.10
2020,03,29,17,23,10.10
2020,03,29,17,24,10.10
2020,03,29,17,25,10.10
2020,03,29,17,26,10.10
2020,03,29,17,27,10.10
2020,03,29,17,28,10.00
2020,03,29,17,29,10.10
2020,03,29,17,30,10.10
2020,03,29,17,31,10.20
2020,03,29,17,32,10.20
2020,03,29,17,33,10.20
2020,03,29,17,34,10.30
2020,03,29,17,35,10.30
2020,03,29,17,36,10.30
2020,03,29,17,37,10.30
2020,03,29,17,38,10.30
2020,03,29,17,39,10.40
2020,03,29,17,40,10.40
2020,03,29,17,41,10.40
2020,03,29,17,42,10.40
2020,03,29,17,43,10.30